Location: *
(45.9500°N, 9.0833°E)
Time: 16:26:04
(UTC+00:00)

Cosmos 2219 Rocket - Pass Details

Date: 03 March 2021
Orbit: 826 x 848 km, 71.0° (Epoch: 15 April)

Event Time Altitude Azimuth Distance (km) Brightness Sun altitude
Rises 19:23:14 0° 199° (SSW) 3,352 5.4 -23.2°
Reaches altitude 10° 19:25:39 10° 198° (SSW) 2,424 4.6 -23.6°
Maximum altitude 19:31:12 76° 113° (ESE) 858 2.0 -24.6°
Drops below altitude 10° 19:36:48 10° 29° (NNE) 2,451 4.5 -25.5°
Sets 19:39:15 0° 28° (NNE) 3,392 5.3 -25.9°
